Regional Weather Roundup
Issued by NWS

Home | Current Version | Previous Version | Text Only | Print | Product List | Glossary On
Versions: 1 2 3 4 5 6 7 8 9 10 11 12 13 14 15 16 17 18 19 20 21 22 23 24 25 26 27 28 29 30 31 32 33 34 35 36 37 38 39 40 41 42 43 44 45 46 47 48 49 50
000
ASUS45 KABQ 031910
RWRNM
NEW MEXICO REGIONAL WEATHER ROUNDUP
NATIONAL WEATHER SERVICE ALBUQUERQUE NM
100 PM MDT WED JUN 03 2015

NOTE: "FAIR" MEANS FEW OR NO CLOUDS BELOW 12,000 FEET AGL WITH NO
       SIGNIFICANT WEATHER OR OBSTRUCTIONS TO VISION.

      THIS PRODUCT IS RELEASED AS TWO VERSIONS.  ONE VERSION NEAR
      THE TOP OF THE HOUR CONTAINING PRELIMINARY DATA FROM ALBUQUERQUE
      AND OTHER STATIONS.  A FINAL VERSION WITH ADDITIONAL DATA IS
      ISSUED ABOUT 10 MINUTES AFTER THE HOUR.

NMZ501-503-504-510>518-032000-
NORTHWEST PLATEAU/NORTHCENTRAL MOUNTAINS

CITY           SKY/WX    TMP DP  RH WIND       PRES   REMARKS
FARMINGTON     SUNNY     80  16   9 VRB6G17   30.02F
LOS ALAMOS     SUNNY     76  24  14 E3        30.15F
SANTA FE       SUNNY     82  10   6 W9        30.08F
TAOS           SUNNY     75  18  11 SW8       30.15F
ANGEL FIRE     FAIR      68  18  14 NW3G21    30.23F

$$
NMZ402-403-502-505>509-032000-
WESTCENTRAL MOUNTAINS/SOUTHWEST MOUNTAINS

CITY           SKY/WX    TMP DP  RH WIND       PRES   REMARKS
GALLUP         SUNNY     78  20  11 SW20      30.10F
GRANTS         SUNNY     84  14   7 W8G22     30.11F
SILVER CITY    SUNNY     84  19   9 W10       30.08F

$$
NMZ407-409-411-412-032000-
SOUTHERN DESERTS

CITY           SKY/WX    TMP DP  RH WIND       PRES   REMARKS
LORDSBURG      FAIR      88  19   8 W12G21    30.01S
DEMING         SUNNY     90  20   7 VRB6G18   29.99F
LAS CRUCES     SUNNY     90  24   9 W13G18    30.00F
HOLLOMAN AFB   MOSUNNY   92  20   7 VRB7      29.95F
ALAMOGORDO     MOSUNNY   91  23   8 SW7       29.97F
T OR C         SUNNY     87  24  10 CALM      29.98F

$$
NMZ519>523-032000-
CENTRAL VALLEYS/CENTRAL HIGHLANDS

CITY           SKY/WX    TMP DP  RH WIND       PRES   REMARKS
ALBUQUERQUE    MOSUNNY   82  21  10 VRB3      30.05F
DOUBLE EAGLE   MOSUNNY   82  27  13 SW7G22    30.08F
MORIARTY ARPT  FAIR      82  19   9 E3        30.10F
CLINES CORNERS SUNNY     79  15   9 NW14G23   30.14F
BELEN          FAIR      84  22  10 SE6       30.03F
SOCORRO        FAIR      88  25  10 E6        30.00F

$$
NMZ524>526-539-540-032000-
SOUTHCENTRAL MOUNTAINS

CITY           SKY/WX    TMP DP  RH WIND       PRES   REMARKS
RUIDOSO        SUNNY     81  27  13 SW14G26   30.16F

$$
NMZ527>531-032000-
NORTHEAST HIGHLANDS/NORTHEAST PLAINS

CITY           SKY/WX    TMP DP  RH WIND       PRES   REMARKS
LAS VEGAS      SUNNY     81  25  12 SW21G28   30.10F
RATON          MOSUNNY   85  26  11 S13G26    30.04F
CLAYTON        SUNNY     87  44  22 NE9       29.97F

$$
NMZ532>537-032000-
EASTCENTRAL PLAINS

CITY           SKY/WX    TMP DP  RH WIND       PRES   REMARKS
TUCUMCARI      SUNNY     91  47  21 N8        29.90F
CANNON AFB     MOSUNNY   87  52  29 S5        29.93F
CLOVIS AIRPORT SUNNY     86  54  32 S5          N/A

$$
NMZ028-029-538-032000-
SOUTHEAST PLAINS

CITY           SKY/WX    TMP DP  RH WIND       PRES   REMARKS
ROSWELL        SUNNY     94  36  13 S6        29.90F
ARTESIA        SUNNY     93  34  12 NE8G15    29.90F
CARLSBAD       SUNNY     98  32  10 N8        29.88F
HOBBS          SUNNY     91  45  19 SW5       29.93F


$$



USA.gov is the U.S. government's official web portal to all federal, state and local government web resources and services.